Time,TemperatureF,DewpointF,PressureIn,WindDirection,WindDirectionDegrees,WindSpeedMPH,WindSpeedGustMPH,Humidity,HourlyPrecipIn,Conditions,Clouds,dailyrainin,SolarRadiationWatts/m^2,SoftwareType,DateUTC
2013-05-28 00:03:00,73.0,63.0,-100.00,ENE,66,4.0,7.0,70,0.00,,,0.00,0.000000,,2013-05-28 10:03:00,
2013-05-28 00:12:00,73.0,63.0,-100.00,ENE,66,4.0,7.0,70,0.00,,,0.00,0.000000,,2013-05-28 10:12:00,
2013-05-28 00:22:00,73.0,64.0,-100.00,ENE,67,3.0,7.0,74,0.00,,,0.00,0.000000,,2013-05-28 10:22:00,
2013-05-28 00:43:00,73.0,64.0,-100.00,ENE,67,3.0,7.0,74,0.00,,,0.00,0.000000,,2013-05-28 10:43:00,
2013-05-28 00:53:00,73.0,64.0,-100.00,ENE,67,3.0,7.0,74,0.00,,,0.00,0.000000,,2013-05-28 10:53:00,
2013-05-28 01:02:00,73.0,64.0,-100.00,ENE,67,3.0,7.0,74,0.00,,,0.00,0.000000,,2013-05-28 11:02:00,
2013-05-28 01:11:00,73.0,64.0,-100.00,ENE,67,3.0,7.0,74,0.00,,,0.00,0.000000,,2013-05-28 11:11:00,
2013-05-28 01:42:00,73.0,65.0,-100.00,ENE,69,3.0,6.0,75,0.00,,,0.00,0.000000,,2013-05-28 11:42:00,
2013-05-28 01:52:00,73.0,65.0,-100.00,ENE,69,3.0,6.0,75,0.00,,,0.00,0.000000,,2013-05-28 11:52:00,
2013-05-28 02:01:00,73.0,65.0,-100.00,ENE,69,3.0,6.0,75,0.00,,,0.00,0.000000,,2013-05-28 12:01:00,
2013-05-28 02:11:00,73.0,65.0,-100.00,ENE,69,3.0,6.0,75,0.00,,,0.00,0.000000,,2013-05-28 12:11:00,
2013-05-28 02:21:00,73.0,65.0,-100.00,ENE,69,3.0,6.0,75,0.00,,,0.00,0.000000,,2013-05-28 12:21:00,
2013-05-28 02:42:00,72.0,64.0,-100.00,ENE,78,3.0,7.0,75,0.00,,,0.00,0.000000,,2013-05-28 12:42:00,
2013-05-28 02:52:00,72.0,64.0,-100.00,ENE,78,3.0,7.0,75,0.00,,,0.00,0.000000,,2013-05-28 12:52:00,
2013-05-28 03:01:00,72.0,64.0,-100.00,ENE,78,3.0,7.0,75,0.00,,,0.00,0.000000,,2013-05-28 13:01:00,
2013-05-28 03:11:00,72.0,64.0,-100.00,ENE,78,3.0,7.0,75,0.00,,,0.00,0.000000,,2013-05-28 13:11:00,
2013-05-28 03:21:00,72.0,64.0,-100.00,ENE,78,3.0,7.0,75,0.00,,,0.00,0.000000,,2013-05-28 13:21:00,
2013-05-28 03:42:00,71.0,62.0,-100.00,ENE,74,4.0,7.0,72,0.00,,,0.00,0.000000,,2013-05-28 13:42:00,
2013-05-28 03:52:00,71.0,62.0,-100.00,ENE,74,4.0,7.0,72,0.00,,,0.00,0.000000,,2013-05-28 13:52:00,
2013-05-28 04:01:00,71.0,62.0,-100.00,ENE,74,4.0,7.0,72,0.00,,,0.00,0.000000,,2013-05-28 14:01:00,
2013-05-28 04:11:00,71.0,62.0,-100.00,ENE,74,4.0,7.0,72,0.00,,,0.00,0.000000,,2013-05-28 14:11:00,
2013-05-28 04:21:00,71.0,62.0,-100.00,ENE,74,4.0,7.0,72,0.00,,,0.00,0.000000,,2013-05-28 14:21:00,
2013-05-28 04:42:00,70.0,59.0,-100.00,East,81,4.0,7.0,69,0.00,,,0.00,0.000000,,2013-05-28 14:42:00,
2013-05-28 04:52:00,70.0,59.0,-100.00,East,81,4.0,7.0,69,0.00,,,0.00,0.000000,,2013-05-28 14:52:00,
2013-05-28 05:01:00,70.0,59.0,-100.00,East,81,4.0,7.0,69,0.00,,,0.00,0.000000,,2013-05-28 15:01:00,
2013-05-28 05:11:00,70.0,59.0,-100.00,East,81,4.0,7.0,69,0.00,,,0.00,0.000000,,2013-05-28 15:11:00,
2013-05-28 05:21:00,70.0,59.0,-100.00,East,81,4.0,7.0,69,0.00,,,0.00,0.000000,,2013-05-28 15:21:00,
2013-05-28 05:22:00,71.0,61.0,-100.00,ENE,71,4.0,8.0,71,0.00,,,0.00,0.000000,,2013-05-28 15:22:00,
2013-05-28 05:43:00,71.0,61.0,-100.00,ENE,71,4.0,8.0,71,0.00,,,0.00,0.000000,,2013-05-28 15:43:00,
2013-05-28 05:53:00,71.0,61.0,-100.00,ENE,71,4.0,8.0,71,0.00,,,0.00,0.000000,,2013-05-28 15:53:00,
2013-05-28 06:03:00,71.0,61.0,-100.00,ENE,71,4.0,8.0,71,0.00,,,0.00,0.000000,,2013-05-28 16:03:00,
2013-05-28 06:12:00,71.0,61.0,-100.00,ENE,71,4.0,8.0,71,0.00,,,0.00,0.000000,,2013-05-28 16:12:00,
2013-05-28 06:22:00,70.0,58.0,-100.00,East,81,4.0,7.0,65,0.00,,,0.00,2.000000,,2013-05-28 16:22:00,
2013-05-28 06:42:00,70.0,58.0,-100.00,East,81,4.0,7.0,65,0.00,,,0.00,2.000000,,2013-05-28 16:42:00,
2013-05-28 06:52:00,70.0,58.0,-100.00,East,81,4.0,7.0,65,0.00,,,0.00,2.000000,,2013-05-28 16:52:00,
2013-05-28 07:02:00,70.0,58.0,-100.00,East,81,4.0,7.0,65,0.00,,,0.00,2.000000,,2013-05-28 17:02:00,
2013-05-28 07:11:00,70.0,58.0,-100.00,East,81,4.0,7.0,65,0.00,,,0.00,2.000000,,2013-05-28 17:11:00,
2013-05-28 07:42:00,72.0,58.0,-100.00,ENE,77,3.0,7.0,61,0.00,,,0.00,90.000000,,2013-05-28 17:42:00,
2013-05-28 07:52:00,72.0,58.0,-100.00,ENE,77,3.0,7.0,61,0.00,,,0.00,90.000000,,2013-05-28 17:52:00,
2013-05-28 08:01:00,72.0,58.0,-100.00,ENE,77,3.0,7.0,61,0.00,,,0.00,90.000000,,2013-05-28 18:01:00,
2013-05-28 08:11:00,72.0,58.0,-100.00,ENE,77,3.0,7.0,61,0.00,,,0.00,90.000000,,2013-05-28 18:11:00,
2013-05-28 08:21:00,72.0,58.0,-100.00,ENE,77,3.0,7.0,61,0.00,,,0.00,90.000000,,2013-05-28 18:21:00,
2013-05-28 08:42:00,79.0,58.0,-100.00,East,99,2.0,5.0,49,0.00,,,0.00,280.000000,,2013-05-28 18:42:00,
2013-05-28 08:52:00,79.0,58.0,-100.00,East,99,2.0,5.0,49,0.00,,,0.00,280.000000,,2013-05-28 18:52:00,
2013-05-28 09:01:00,79.0,58.0,-100.00,East,99,2.0,5.0,49,0.00,,,0.00,280.000000,,2013-05-28 19:01:00,
2013-05-28 09:11:00,79.0,58.0,-100.00,East,99,2.0,5.0,49,0.00,,,0.00,280.000000,,2013-05-28 19:11:00,
2013-05-28 09:21:00,79.0,58.0,-100.00,East,99,2.0,5.0,49,0.00,,,0.00,280.000000,,2013-05-28 19:21:00,
2013-05-28 09:22:00,82.0,65.0,-100.00,West,262,2.0,5.0,57,0.00,,,0.00,489.000000,,2013-05-28 19:22:00,
2013-05-28 09:42:00,82.0,65.0,-100.00,West,262,2.0,5.0,57,0.00,,,0.00,489.000000,,2013-05-28 19:42:00,
2013-05-28 09:52:00,82.0,65.0,-100.00,West,262,2.0,5.0,57,0.00,,,0.00,489.000000,,2013-05-28 19:52:00,
2013-05-28 10:01:00,82.0,65.0,-100.00,West,262,2.0,5.0,57,0.00,,,0.00,489.000000,,2013-05-28 20:01:00,
2013-05-28 10:11:00,82.0,65.0,-100.00,West,262,2.0,5.0,57,0.00,,,0.00,489.000000,,2013-05-28 20:11:00,
2013-05-28 10:42:00,81.0,67.0,-100.00,West,266,4.0,8.0,62,0.00,,,0.00,690.000000,,2013-05-28 20:42:00,
2013-05-28 10:52:00,81.0,67.0,-100.00,West,266,4.0,8.0,62,0.00,,,0.00,690.000000,,2013-05-28 20:52:00,
2013-05-28 11:01:00,81.0,67.0,-100.00,West,266,4.0,8.0,62,0.00,,,0.00,690.000000,,2013-05-28 21:01:00,
2013-05-28 11:11:00,81.0,67.0,-100.00,West,266,4.0,8.0,62,0.00,,,0.00,690.000000,,2013-05-28 21:11:00,
2013-05-28 11:21:00,81.0,67.0,-100.00,West,266,4.0,8.0,62,0.00,,,0.00,690.000000,,2013-05-28 21:21:00,
2013-05-28 11:22:00,81.0,69.0,-100.00,West,276,5.0,11.0,66,0.00,,,-99.99,677.000000,,2013-05-28 21:22:00,
2013-05-28 11:43:00,81.0,69.0,-100.00,West,276,5.0,11.0,66,0.00,,,-99.99,677.000000,,2013-05-28 21:43:00,
2013-05-28 11:53:00,81.0,69.0,-100.00,West,276,5.0,11.0,66,0.00,,,-99.99,677.000000,,2013-05-28 21:53:00,
2013-05-28 12:02:00,81.0,69.0,-100.00,West,276,5.0,11.0,66,0.00,,,-99.99,677.000000,,2013-05-28 22:02:00,
2013-05-28 12:12:00,81.0,69.0,-100.00,West,276,5.0,11.0,66,0.00,,,-99.99,677.000000,,2013-05-28 22:12:00,
2013-05-28 12:42:00,80.0,68.0,-100.00,West,277,4.0,10.0,66,0.00,,,0.00,358.000000,,2013-05-28 22:42:00,
2013-05-28 12:52:00,80.0,68.0,-100.00,West,277,4.0,10.0,66,0.00,,,0.00,358.000000,,2013-05-28 22:52:00,
2013-05-28 13:02:00,80.0,68.0,-100.00,West,277,4.0,10.0,66,0.00,,,0.00,358.000000,,2013-05-28 23:02:00,
2013-05-28 13:11:00,80.0,68.0,-100.00,West,277,4.0,10.0,66,0.00,,,0.00,358.000000,,2013-05-28 23:11:00,
2013-05-28 13:21:00,80.0,68.0,-100.00,West,277,4.0,10.0,66,0.00,,,0.00,358.000000,,2013-05-28 23:21:00,
2013-05-28 13:42:00,81.0,65.0,-100.00,West,260,3.0,7.0,58,0.00,,,0.00,674.000000,,2013-05-28 23:42:00,
2013-05-28 13:52:00,81.0,65.0,-100.00,West,260,3.0,7.0,58,0.00,,,0.00,674.000000,,2013-05-28 23:52:00,
2013-05-28 14:02:00,81.0,65.0,-100.00,West,260,3.0,7.0,58,0.00,,,0.00,674.000000,,2013-05-29 00:02:00,
2013-05-28 14:11:00,81.0,65.0,-100.00,West,260,3.0,7.0,58,0.00,,,0.00,674.000000,,2013-05-29 00:11:00,
2013-05-28 14:21:00,81.0,65.0,-100.00,West,260,3.0,7.0,58,0.00,,,0.00,674.000000,,2013-05-29 00:21:00,
2013-05-28 14:42:00,83.0,67.0,-100.00,West,263,4.0,9.0,58,0.00,,,0.00,770.000000,,2013-05-29 00:42:00,
2013-05-28 14:52:00,83.0,67.0,-100.00,West,263,4.0,9.0,58,0.00,,,0.00,770.000000,,2013-05-29 00:52:00,
2013-05-28 15:01:00,83.0,67.0,-100.00,West,263,4.0,9.0,58,0.00,,,0.00,770.000000,,2013-05-29 01:01:00,
2013-05-28 15:11:00,83.0,67.0,-100.00,West,263,4.0,9.0,58,0.00,,,0.00,770.000000,,2013-05-29 01:11:00,
2013-05-28 15:21:00,83.0,67.0,-100.00,West,263,4.0,9.0,58,0.00,,,0.00,770.000000,,2013-05-29 01:21:00,
2013-05-28 15:42:00,81.0,66.0,-100.00,West,267,3.0,8.0,60,0.00,,,0.00,384.000000,,2013-05-29 01:42:00,
2013-05-28 15:52:00,81.0,66.0,-100.00,West,267,3.0,8.0,60,0.00,,,0.00,384.000000,,2013-05-29 01:52:00,
2013-05-28 16:02:00,81.0,66.0,-100.00,West,267,3.0,8.0,60,0.00,,,0.00,384.000000,,2013-05-29 02:02:00,
2013-05-28 16:12:00,81.0,66.0,-100.00,West,267,3.0,8.0,60,0.00,,,0.00,384.000000,,2013-05-29 02:12:00,
2013-05-28 16:21:00,81.0,66.0,-100.00,West,267,3.0,8.0,60,0.00,,,0.00,384.000000,,2013-05-29 02:21:00,
2013-05-28 16:42:00,83.0,66.0,-100.00,West,269,4.0,10.0,57,0.00,,,0.00,622.000000,,2013-05-29 02:42:00,
2013-05-28 16:52:00,83.0,66.0,-100.00,West,269,4.0,10.0,57,0.00,,,0.00,622.000000,,2013-05-29 02:52:00,
2013-05-28 17:01:00,83.0,66.0,-100.00,West,269,4.0,10.0,57,0.00,,,0.00,622.000000,,2013-05-29 03:01:00,
2013-05-28 17:11:00,83.0,66.0,-100.00,West,269,4.0,10.0,57,0.00,,,0.00,622.000000,,2013-05-29 03:11:00,
2013-05-28 17:21:00,83.0,66.0,-100.00,West,269,4.0,10.0,57,0.00,,,0.00,622.000000,,2013-05-29 03:21:00,
2013-05-28 17:22:00,83.0,67.0,-100.00,West,260,4.0,8.0,58,0.00,,,0.00,419.000000,,2013-05-29 03:22:00,
2013-05-28 17:43:00,83.0,67.0,-100.00,West,260,4.0,8.0,58,0.00,,,0.00,419.000000,,2013-05-29 03:43:00,
2013-05-28 17:53:00,83.0,67.0,-100.00,West,260,4.0,8.0,58,0.00,,,0.00,419.000000,,2013-05-29 03:53:00,
2013-05-28 18:02:00,83.0,67.0,-100.00,West,260,4.0,8.0,58,0.00,,,0.00,419.000000,,2013-05-29 04:02:00,
2013-05-28 18:12:00,83.0,67.0,-100.00,West,260,4.0,8.0,58,0.00,,,0.00,419.000000,,2013-05-29 04:12:00,
2013-05-28 18:42:00,82.0,68.0,-100.00,West,264,3.0,7.0,62,0.00,,,0.00,250.000000,,2013-05-29 04:42:00,
2013-05-28 18:52:00,82.0,68.0,-100.00,West,264,3.0,7.0,62,0.00,,,0.00,250.000000,,2013-05-29 04:52:00,
2013-05-28 19:02:00,82.0,68.0,-100.00,West,264,3.0,7.0,62,0.00,,,0.00,250.000000,,2013-05-29 05:02:00,
2013-05-28 19:12:00,82.0,68.0,-100.00,West,264,3.0,7.0,62,0.00,,,0.00,250.000000,,2013-05-29 05:12:00,
2013-05-28 19:21:00,82.0,68.0,-100.00,West,264,3.0,7.0,62,0.00,,,0.00,250.000000,,2013-05-29 05:21:00,
2013-05-28 19:42:00,79.0,67.0,-100.00,West,266,2.0,6.0,67,0.00,,,0.00,39.000000,,2013-05-29 05:42:00,
2013-05-28 19:52:00,79.0,67.0,-100.00,West,266,2.0,6.0,67,0.00,,,0.00,39.000000,,2013-05-29 05:52:00,
2013-05-28 20:01:00,79.0,67.0,-100.00,West,266,2.0,6.0,67,0.00,,,0.00,39.000000,,2013-05-29 06:01:00,
2013-05-28 20:11:00,79.0,67.0,-100.00,West,266,2.0,6.0,67,0.00,,,0.00,39.000000,,2013-05-29 06:11:00,
2013-05-28 20:21:00,79.0,67.0,-100.00,West,266,2.0,6.0,67,0.00,,,0.00,39.000000,,2013-05-29 06:21:00,
2013-05-28 20:42:00,78.0,66.0,-100.00,WSW,246,1.0,3.0,67,0.00,,,0.00,0.000000,,2013-05-29 06:42:00,
2013-05-28 20:52:00,78.0,66.0,-100.00,WSW,246,1.0,3.0,67,0.00,,,0.00,0.000000,,2013-05-29 06:52:00,
2013-05-28 21:01:00,78.0,66.0,-100.00,WSW,246,1.0,3.0,67,0.00,,,0.00,0.000000,,2013-05-29 07:01:00,
2013-05-28 21:11:00,78.0,66.0,-100.00,WSW,246,1.0,3.0,67,0.00,,,0.00,0.000000,,2013-05-29 07:11:00,
2013-05-28 21:21:00,78.0,66.0,-100.00,WSW,246,1.0,3.0,67,0.00,,,0.00,0.000000,,2013-05-29 07:21:00,
2013-05-28 21:42:00,78.0,68.0,-100.00,East,79,1.0,3.0,71,0.00,,,0.00,0.000000,,2013-05-29 07:42:00,
2013-05-28 21:52:00,78.0,68.0,-100.00,East,79,1.0,3.0,71,0.00,,,0.00,0.000000,,2013-05-29 07:52:00,
2013-05-28 22:02:00,78.0,68.0,-100.00,East,79,1.0,3.0,71,0.00,,,0.00,0.000000,,2013-05-29 08:02:00,
2013-05-28 22:11:00,78.0,68.0,-100.00,East,79,1.0,3.0,71,0.00,,,0.00,0.000000,,2013-05-29 08:11:00,
2013-05-28 22:21:00,78.0,68.0,-100.00,East,79,1.0,3.0,71,0.00,,,0.00,0.000000,,2013-05-29 08:21:00,
2013-05-28 22:42:00,76.0,66.0,-100.00,ENE,71,3.0,6.0,71,0.00,,,0.00,0.000000,,2013-05-29 08:42:00,
2013-05-28 22:52:00,76.0,66.0,-100.00,ENE,71,3.0,6.0,71,0.00,,,0.00,0.000000,,2013-05-29 08:52:00,
2013-05-28 23:01:00,76.0,66.0,-100.00,ENE,71,3.0,6.0,71,0.00,,,0.00,0.000000,,2013-05-29 09:01:00,
2013-05-28 23:11:00,76.0,66.0,-100.00,ENE,71,3.0,6.0,71,0.00,,,0.00,0.000000,,2013-05-29 09:11:00,
2013-05-28 23:21:00,76.0,66.0,-100.00,ENE,71,3.0,6.0,71,0.00,,,0.00,0.000000,,2013-05-29 09:21:00,
2013-05-28 23:22:00,75.0,65.0,-100.00,East,83,3.0,7.0,70,0.00,,,0.00,0.000000,,2013-05-29 09:22:00,
2013-05-28 23:42:00,75.0,65.0,-100.00,East,83,3.0,7.0,70,0.00,,,0.00,0.000000,,2013-05-29 09:42:00,
2013-05-28 23:52:00,75.0,65.0,-100.00,East,83,3.0,7.0,70,0.00,,,0.00,0.000000,,2013-05-29 09:52:00,